Precipitable_Water
0.84 0.83 0.81 0.74 1.06 1.01 0.96 0.85 0.87 0.87 0.86 0.85 0.83 0.78 0.76 0.74 0.78 0.82 1.02 1.14 1.28 1.28 1.31 1.25 1.25 1.22 1.24 1.23 1.12 1.04 1.00 0.93 0.92
0.78 0.77 0.75 0.96 1.02 0.88 0.87 0.79 0.82 0.87 0.86 0.87 0.82 0.75 0.70 0.75 0.70 0.74 0.81 1.05 1.18 1.23 1.22 1.15 1.17 1.13 1.10 1.02 0.99 0.98 0.91 0.85 0.86
0.79 0.73 0.86 1.00 0.92 0.76 0.79 0.75 0.80 0.85 0.84 0.84 0.80 0.74 0.70 0.69 0.69 0.69 0.75 0.87 1.03 1.08 1.07 1.06 1.07 1.06 1.01 0.99 0.96 0.89 0.84 0.86 0.93
0.83 0.81 0.86 0.95 0.85 0.74 0.72 0.73 0.81 0.84 0.83 0.82 0.79 0.76 0.75 0.74 0.73 0.76 0.80 0.84 0.85 0.88 0.96 0.99 1.03 1.07 1.04 0.98 0.91 0.87 0.92 0.92 0.90
0.86 0.77 0.87 1.00 0.96 0.80 0.70 0.68 0.79 0.79 0.79 0.82 0.82 0.82 0.79 0.78 0.86 0.89 0.87 0.87 0.87 0.83 0.87 1.12 1.19 1.09 0.99 0.90 0.94 0.93 0.93 0.91 0.94
0.83 0.80 0.92 1.09 1.09 0.87 0.76 0.68 0.78 0.79 0.84 0.84 0.83 0.83 0.80 0.73 0.87 1.03 0.95 0.83 0.92 1.08 1.27 1.25 1.18 1.07 0.97 0.92 0.97 0.92 0.93 0.97 0.93
0.81 0.83 1.05 1.12 1.07 0.89 0.74 0.71 0.80 0.82 0.85 0.85 0.83 0.77 0.77 0.88 0.99 1.13 1.03 1.14 1.30 1.30 1.28 1.19 1.12 1.06 0.98 0.98 0.93 0.96 0.93 0.99 1.03
0.85 0.86 0.93 0.96 0.97 0.86 0.72 0.68 0.79 0.82 0.86 0.83 0.80 0.77 0.76 0.89 1.05 1.23 1.18 1.25 1.31 1.21 1.19 1.12 1.09 1.08 0.97 0.96 0.96 1.07 1.05 1.03 1.03
0.83 0.86 0.85 0.80 0.85 0.81 0.67 0.66 0.78 0.82 0.84 0.82 0.82 0.82 0.79 0.77 0.97 1.16 1.19 1.17 1.28 1.18 1.10 1.04 1.01 1.02 0.97 0.96 1.09 1.06 0.97 1.03 0.96
0.84 0.83 0.83 0.79 0.78 0.74 0.64 0.71 0.77 0.78 0.83 0.82 0.87 0.83 0.81 0.82 0.92 0.99 1.08 1.12 1.25 1.12 1.03 0.97 0.96 0.99 1.00 0.96 1.07 1.02 1.00 0.95 0.91
0.78 0.74 0.74 0.74 0.72 0.68 0.67 0.73 0.75 0.76 0.79 0.85 0.89 0.87 0.88 0.84 0.83 0.94 1.06 1.17 1.23 1.05 0.98 0.98 0.96 0.99 1.12 1.05 0.97 0.98 0.94 0.85 0.84
0.75 0.75 0.71 0.72 0.68 0.66 0.76 0.78 0.77 0.76 0.83 0.82 0.88 0.87 0.92 0.91 0.93 1.00 1.06 1.15 1.20 1.06 1.00 0.98 0.93 1.11 1.03 0.95 1.05 0.93 0.87 0.82 0.83
0.76 0.77 0.70 0.73 0.66 0.70 0.76 0.74 0.74 0.78 0.79 0.79 0.86 0.87 0.91 0.97 1.01 1.07 1.12 1.19 1.16 1.11 1.05 1.01 1.15 1.05 0.93 1.13 1.01 0.88 0.84 0.81 0.81
0.82 0.79 0.77 0.75 0.67 0.72 0.75 0.73 0.75 0.76 0.78 0.80 0.84 0.86 0.88 0.95 1.01 1.03 1.15 1.15 1.16 1.11 1.09 1.10 1.09 0.94 1.19 1.11 0.93 0.85 0.81 0.79 0.79
0.91 0.84 0.80 0.77 0.73 0.75 0.73 0.70 0.76 0.77 0.77 0.78 0.80 0.85 0.89 0.95 1.00 1.00 1.10 1.19 1.18 1.13 1.13 1.19 1.12 1.03 1.07 1.02 0.92 0.86 0.80 0.77 0.78
1.13 0.91 0.85 0.80 0.76 0.75 0.75 0.73 0.73 0.73 0.78 0.71 0.72 0.77 0.87 0.93 1.01 1.04 1.06 1.14 1.12 1.13 1.11 1.16 1.12 1.02 1.00 0.99 0.94 0.85 0.82 0.76 0.74
1.19 1.15 0.91 0.82 0.80 0.83 0.78 0.75 0.71 0.73 0.77 0.63 0.62 0.55 0.69 0.82 0.92 1.04 1.06 1.06 1.09 1.08 1.16 1.11 1.04 1.03 1.04 1.00 0.95 0.85 0.80 0.77 0.73
1.17 1.20 1.08 0.89 0.84 0.80 0.79 0.77 0.73 0.66 0.73 0.73 0.61 0.51 0.46 0.63 0.76 0.87 0.93 0.97 1.07 1.07 1.11 1.11 1.04 1.00 1.04 1.03 1.01 0.90 0.88 0.84 0.77
1.16 1.18 1.14 1.12 1.00 0.85 0.83 0.82 0.77 0.75 0.66 0.72 0.69 0.64 0.59 0.52 0.51 0.73 0.85 0.93 1.00 1.08 1.12 1.12 1.05 1.04 1.05 0.99 0.97 0.92 0.94 0.88 0.83
1.20 1.23 1.21 1.18 1.15 1.01 0.86 0.83 0.79 0.78 0.73 0.68 0.64 0.61 0.58 0.58 0.54 0.47 0.63 0.77 0.90 0.95 1.05 1.06 1.06 1.09 1.02 1.00 0.94 0.91 0.93 0.92 0.87
Wind_Speed
11 11 10 9 9 8 7 6 7 6 5 5 6 6 5 5 5 5 5 6 8 9 9 9 10 9 10 10 10 11 11 12 12
12 12 11 11 10 8 7 7 7 6 5 5 5 4 4 4 4 4 4 5 6 7 8 8 8 8 9 9 10 10 11 12 12
12 12 12 11 10 8 8 7 7 6 4 5 4 3 3 4 4 4 4 5 5 6 6 7 7 8 8 9 10 10 11 11 12
13 12 14 13 11 10 9 8 8 6 5 5 4 3 4 4 4 4 5 6 5 5 6 6 6 8 8 9 9 10 11 11 11
14 14 13 13 12 11 10 9 9 7 6 6 5 4 4 5 5 5 5 6 6 6 7 8 8 8 8 8 9 9 10 10 11
15 14 14 14 13 12 11 10 9 8 7 7 6 5 5 6 6 6 6 7 8 8 8 8 7 7 7 7 8 8 8 9 9
16 15 14 14 14 12 12 12 11 9 9 8 7 6 6 7 6 7 7 8 8 9 9 7 5 5 5 6 6 7 7 8 8
18 17 17 16 15 14 13 13 12 11 10 9 9 7 8 8 7 9 8 8 10 9 7 5 4 4 4 4 5 6 6 7 8
19 18 18 18 17 16 15 14 13 12 11 11 10 10 9 10 11 10 10 10 10 8 6 5 3 2 2 3 3 4 5 6 7
20 19 19 18 18 17 16 16 15 14 13 12 12 11 11 11 13 13 12 12 10 8 7 6 4 1 1 2 2 3 4 6 7
21 20 19 19 19 18 18 17 16 15 14 13 13 13 13 13 14 14 14 14 12 9 8 7 6 3 2 1 1 3 5 6 7
23 21 21 20 20 20 19 18 17 17 16 15 15 14 15 15 15 16 16 16 14 11 9 8 7 5 4 3 1 3 5 6 8
24 23 23 22 22 22 21 20 19 18 18 17 17 16 16 17 17 18 18 18 16 13 11 10 9 6 5 4 4 5 6 7 8
25 25 24 24 23 23 22 21 21 20 19 19 18 18 19 19 20 20 20 20 19 16 14 13 11 8 7 6 7 7 7 8 9
26 26 25 25 25 24 23 23 22 22 21 20 20 20 20 21 21 22 22 22 20 18 17 16 14 11 10 9 9 9 9 9 10
27 27 27 27 27 26 25 24 23 22 22 21 21 21 21 22 23 23 24 24 23 21 20 19 17 15 13 12 12 11 11 12 12
29 28 28 28 28 27 27 26 24 24 24 23 22 22 22 23 24 25 26 26 26 24 24 22 20 18 17 15 14 14 13 14 15
30 30 29 29 29 29 29 28 26 25 26 25 23 22 24 24 26 27 27 28 28 27 26 25 23 22 20 19 18 17 17 17 18
31 31 31 29 30 30 30 30 29 28 27 27 26 25 23 25 25 27 28 29 29 28 28 27 26 24 24 23 22 20 20 20 20
32 32 30 30 31 31 32 32 31 31 30 29 28 27 26 25 25 26 28 30 30 31 31 30 28 27 26 25 24 23 23 23 23
Wind_Direction
191 190 189 183 175 171 166 161 154 146 137 133 136 137 139 132 123 113 100 90 88 88 86 85 78 72 70 65 57 55 53 51 50
191 192 190 184 181 180 177 171 167 161 152 147 147 143 142 146 137 130 129 113 101 95 88 87 79 74 70 63 59 57 54 53 52
194 194 192 191 193 196 189 183 179 176 171 167 163 158 167 169 156 141 145 144 129 109 97 92 83 78 73 67 62 57 55 56 54
201 201 199 201 202 196 194 192 192 194 193 188 184 175 157 161 161 149 144 146 140 125 119 102 90 84 77 68 61 60 61 59 55
204 202 203 203 202 203 202 201 201 206 208 198 196 192 183 176 164 161 150 145 145 129 120 111 96 88 77 69 68 65 60 58 54
206 205 208 207 207 209 211 209 208 212 207 204 205 208 205 195 184 175 163 154 143 141 131 122 99 89 81 73 69 62 59 54 51
210 210 208 207 211 214 214 214 214 217 211 212 212 210 204 189 189 184 166 163 159 144 138 128 106 88 80 75 68 58 55 51 45
214 215 215 216 218 219 218 217 218 220 218 220 217 218 206 198 194 184 181 168 160 156 152 144 121 93 80 77 67 57 52 43 37
217 219 220 223 224 223 222 220 221 222 222 224 224 222 219 214 203 193 190 183 180 179 181 178 164 110 89 84 62 52 34 29 19
219 220 222 223 223 223 223 221 224 226 227 228 224 224 220 215 210 208 202 195 192 192 191 197 192 179 137 111 47 22 18 6 358
221 222 224 224 224 225 223 224 226 228 229 228 228 227 223 220 214 211 206 201 201 203 203 210 210 213 177 185 331 360 358 356 356
223 225 227 228 227 226 225 228 230 232 232 232 231 229 225 222 217 215 211 209 209 210 216 216 218 215 235 253 266 329 338 343 346
227 228 231 231 229 227 230 231 233 233 233 233 233 232 229 226 224 221 217 215 216 218 221 222 213 241 242 236 278 306 319 330 337
229 230 232 231 230 230 232 233 233 233 233 234 236 236 236 232 229 225 221 220 221 223 222 221 229 250 248 255 281 290 302 313 324
231 233 233 232 231 232 234 234 234 234 234 236 238 240 237 233 232 230 225 222 224 226 225 226 235 248 245 261 277 283 292 301 310
232 234 235 233 233 234 234 234 233 235 234 237 240 242 240 236 234 232 229 228 228 230 227 231 239 248 249 261 274 279 285 294 299
233 234 235 233 232 233 234 233 234 237 236 240 242 243 243 241 238 235 232 231 232 232 234 236 240 246 251 260 271 275 281 288 295
232 234 234 233 233 234 234 234 236 238 238 238 243 245 246 243 241 238 236 234 234 235 237 236 241 245 250 258 268 273 277 285 291
235 233 234 235 235 236 236 237 238 238 239 240 244 246 247 244 243 240 238 236 236 236 236 240 243 246 251 257 266 271 276 282 287
234 233 235 236 238 238 238 238 239 240 241 242 243 246 247 246 244 242 240 238 239 238 240 243 244 247 252 257 265 270 273 279 284